This demonstration page uses our WeatherBlox Daily Observations layout. Learn more.

Left ArrowRight Arrow

38.20091, -84.87328

Hourly Observations for April 6, 2016

Temp ( °F °C ) Dew Point ( °F °C ) Humidity (%) Winds ( mph kmh ) Pressure ( in mb ) Visibility ( mi km ) Precip ( " mm )
12:53 am 00:53 Clear 38 3.3 21 -6.1 51 51 E 5 7 30.18 1022 10 16 0.00 0.00
1:53 am 01:53 Clear 37 2.8 21 -6.1 52 52 SE 7 11 30.14 1021 10 16 0.00 0.00
2:53 am 02:53 Clear 38 3.3 19 -7.2 46 46 SSE 3 6 30.11 1020 10 16 0.00 0.00
3:53 am 03:53 Clear 39 3.9 19 -7.2 45 45 SSE 8 13 30.10 1019 10 16 0.00 0.00
4:53 am 04:53 Clear 38 3.3 20 -6.7 48 48 SSE 7 11 30.06 1018 10 16 0.00 0.00
5:53 am 05:53 Clear 40 4.4 21 -6.1 47 47 SSE 8 13 30.03 1017 10 16 0.00 0.00
6:53 am 06:53 Clear 40 4.4 22 -5.6 49 49 S 7 11 30.02 1017 10 16 0.00 0.00
7:53 am 07:53 Sunny 41 5 24 -4.4 51 51 SSE 7 11 30.01 1016 10 16 0.00 0.00
8:53 am 08:53 Sunny 46 7.8 26 -3.3 46 46 S 9 15 29.99 1016 10 16 0.00 0.00
9:53 am 09:53 Sunny 53 11.7 29 -1.7 40 40 S 12 19 29.97 1015 10 16 0.00 0.00
10:53 am 10:53 Sunny 57 13.9 29 -1.7 34 34 SSW 22 35 29.94 1014 10 16 0.00 0.00
11:53 am 11:53 Sunny 59 15 31 -0.6 35 35 SSW 23 37 29.90 1013 10 16 0.00 0.00
12:53 pm 12:53 Mostly Cloudy 62 16.7 33 0.6 34 34 S 23 37 29.86 1011 10 16 0.00 0.00
1:53 pm 13:53 Cloudy 64 17.8 35 1.7 34 34 SSW 23 37 29.82 1010 10 16 0.00 0.00
2:53 pm 14:53 Mostly Sunny 67 19.4 38 3.3 35 35 S 28 44 29.77 1008 10 16 0.00 0.00
3:53 pm 15:53 Partly Cloudy 65 18.3 39 3.9 39 39 SSW 22 35 29.74 1007 10 16 0.00 0.00
4:30 pm 16:30 Cloudy with Nearby Thunderstorms 63 17.2 40 4.4 43 43 S 21 33 29.68 1005 10 16 0.00 0.00
4:50 pm 16:50 Cloudy 61 16 43 6 52 52 SSW 28 44 29.71 1006 10 16 0.00 0.00
4:53 pm 16:53 Cloudy 59 15 44 6.7 58 58 S 21 33 29.72 1007 10 16 0.00 0.00
5:53 pm 17:53 Cloudy with Light Rain 54 12.2 48 8.9 80 80 S 14 22 29.70 1006 10 16 0.03 0.76
6:53 pm 18:53 Cloudy 54 12.2 48 8.9 80 80 S 9 15 29.68 1005 10 16 0.00 0.03
7:53 pm 19:53 Cloudy 54 12.2 46 7.8 75 75 S 12 19 29.65 1004 10 16 0.00 0.00
8:53 pm 20:53 Cloudy with Light Rain 53 11.7 47 8.3 80 80 S 18 30 29.62 1003 8 13 0.04 1.02
9:48 pm 21:48 Cloudy with Light Rain 54 12 48 9 82 82 S 15 24 29.62 1003 6 10 0.03 0.76
9:53 pm 21:53 Cloudy with Light Rain 53 11.7 48 8.9 83 83 SSW 17 28 29.60 1002 9 14 0.03 0.76
10:45 pm 22:45 Cloudy with Light Rain 50 10 45 7.2 83 83 W 17 28 29.65 1004 8 13 0.01 0.25
10:53 pm 22:53 Cloudy with Light Rain 50 10 44 6.7 80 80 W 15 24 29.65 1004 10 16 0.01 0.25
11:03 pm 23:03 Cloudy 50 10 44 6.7 80 80 W 9 15 29.68 1005 10 16 0.00 0.03
11:53 pm 23:53 Mostly Cloudy 49 9.4 41 5 74 74 W 9 15 29.67 1005 10 16 0.00 0.03

Powered by AerisWeather